| time (UTC) | temp F | wind direction | speed knots | gust knots | rain 1hr in | rain 24hr in | rain mn in | humidity % | barometer mb |
| 20260507170053 | 50 | 259 | 7.0 | 10.4 | 0.00 | 0.00 | 0.00 | 41 | |
| 20260507170006 | 49 | 264 | 6.1 | 10.4 | 0.00 | 0.00 | 0.00 | 41 | 1012.7 |
| 20260507165526 | 50 | 300 | 6.1 | 11.3 | 0.00 | 0.00 | 0.00 | 41 | |
| 20260507165021 | 49 | 299 | 6.1 | 11.3 | 0.00 | 0.00 | 0.00 | 41 | |
| 20260507164610 | 49 | 275 | 5.2 | 12.2 | 0.00 | 0.00 | 0.00 | 41 | 1012.9 |
| 20260507164516 | 49 | 269 | 5.2 | 12.2 | 0.00 | 0.00 | 0.00 | 42 | |
| 20260507164028 | 49 | 291 | 5.2 | 12.2 | 0.00 | 0.00 | 0.00 | 41 | |
| 20260507163524 | 49 | 286 | 6.1 | 11.3 | 0.00 | 0.00 | 0.00 | 41 | |
| 20260507163019 | 49 | 329 | 7.8 | 11.3 | 0.00 | 0.00 | 0.00 | 42 | |
| 20260507163002 | 48 | 348 | 7.8 | 11.3 | 0.00 | 0.00 | 0.00 | 42 | 1013.0 |
| 20260507162515 | 48 | 274 | 6.1 | 12.2 | 0.00 | 0.00 | 0.00 | 42 | |
| 20260507162055 | 49 | 286 | 7.0 | 12.2 | 0.00 | 0.00 | 0.00 | 42 | |
| 20260507161629 | 48 | 288 | 5.2 | 12.2 | 0.00 | 0.00 | 0.00 | 43 | 1013.3 |
| 20260507161547 | 48 | 300 | 6.1 | 12.2 | 0.00 | 0.00 | 0.00 | 41 | |
| 20260507161018 | 48 | 286 | 7.8 | 12.2 | 0.00 | 0.00 | 0.00 | 41 | |
| 20260507160532 | 48 | 290 | 6.1 | 12.2 | 0.00 | 0.00 | 0.00 | 42 | |
| 20260507160027 | 48 | 312 | 8.7 | 12.2 | 0.00 | 0.00 | 0.00 | 42 | |
| 20260507160008 | 47 | 318 | 8.7 | 12.2 | 0.00 | 0.00 | 0.00 | 42 | 1013.3 |
| 20260507155520 | 48 | 332 | 8.7 | 12.2 | 0.00 | 0.00 | 0.00 | 43 | |
| 20260507155036 | 48 | 294 | 7.8 | 13.9 | 0.00 | 0.00 | 0.00 | 43 | |
| 20260507154531 | 47 | 311 | 7.0 | 13.9 | 0.00 | 0.00 | 0.00 | 43 | |
| 20260507154510 | 47 | 317 | 7.8 | 13.9 | 0.00 | 0.00 | 0.00 | 43 | 1013.4 |
| 20260507154024 | 47 | 284 | 7.8 | 11.3 | 0.00 | 0.00 | 0.00 | 43 | |
| 20260507153539 | 47 | 296 | 7.0 | 11.3 | 0.00 | 0.00 | 0.00 | 44 | |
| 20260507153052 | 46 | 288 | 5.2 | 10.4 | 0.00 | 0.00 | 0.00 | 46 | 1013.4 |
| 20260507153028 | 46 | 290 | 6.1 | 10.4 | 0.00 | 0.00 | 0.00 | 46 | |
| 20260507152521 | 46 | 313 | 7.8 | 11.3 | 0.00 | 0.00 | 0.00 | 46 | |
| 20260507152018 | 45 | 308 | 7.0 | 11.3 | 0.00 | 0.00 | 0.00 | 47 | |
| 20260507151616 | 45 | 277 | 7.8 | 11.3 | 0.00 | 0.00 | 0.00 | 47 | 1013.5 |
| 20260507151533 | 45 | 286 | 7.8 | 11.3 | 0.00 | 0.00 | 0.00 | 47 | |
| 20260507151027 | 45 | 306 | 6.1 | 11.3 | 0.00 | 0.00 | 0.00 | 49 | |
| 20260507150523 | 45 | 284 | 7.8 | 10.4 | 0.00 | 0.00 | 0.00 | 49 | |
| 20260507150054 | 44 | 288 | 5.2 | 10.4 | 0.00 | 0.00 | 0.00 | 52 | 1013.6 |
| 20260507150037 | 44 | 286 | 5.2 | 10.4 | 0.00 | 0.00 | 0.00 | 52 | |
| 20260507145550 | 43 | 289 | 6.1 | 9.6 | 0.00 | 0.00 | 0.00 | 54 | |
| 20260507145024 | 43 | 331 | 4.3 | 6.1 | 0.00 | 0.00 | 0.00 | 59 | |
| 20260507144639 | 42 | 332 | 2.6 | 6.1 | 0.00 | 0.00 | 0.00 | 59 | 1013.6 |
| 20260507144539 | 42 | 332 | 3.5 | 6.1 | 0.00 | 0.00 | 0.00 | 59 | |
| 20260507144033 | 42 | 327 | 4.3 | 7.0 | 0.00 | 0.00 | 0.00 | 61 | |
| 20260507143529 | 41 | 323 | 5.2 | 7.0 | 0.00 | 0.00 | 0.00 | 62 | |
| 20260507143047 | 41 | 291 | 4.3 | 6.1 | 0.00 | 0.00 | 0.00 | 62 | 1013.6 |
| 20260507143025 | 41 | 291 | 4.3 | 6.1 | 0.00 | 0.00 | 0.00 | 63 | |
| 20260507142516 | 41 | 313 | 2.6 | 7.8 | 0.00 | 0.00 | 0.00 | 64 | |
| 20260507142031 | 40 | 337 | 3.5 | 7.8 | 0.00 | 0.00 | 0.00 | 65 | |
| 20260507141610 | 40 | 321 | 4.3 | 7.0 | 0.00 | 0.00 | 0.00 | 66 | 1013.7 |
| 20260507141523 | 40 | 325 | 5.2 | 7.0 | 0.00 | 0.00 | 0.00 | 66 | |
| 20260507141018 | 40 | 302 | 6.1 | 7.0 | 0.00 | 0.00 | 0.00 | 68 | |
| 20260507140531 | 39 | 322 | 4.3 | 7.0 | 0.00 | 0.00 | 0.00 | 71 | |
| 20260507140042 | 39 | 329 | 3.5 | 7.0 | 0.00 | 0.00 | 0.00 | 72 | 1013.5 |
| 20260507140028 | 39 | 329 | 4.3 | 7.0 | 0.00 | 0.00 | 0.00 | 72 | |
| 20260507135524 | 39 | 321 | 5.2 | 6.1 | 0.00 | 0.00 | 0.00 | 72 | |
| 20260507135018 | 39 | 331 | 4.3 | 6.1 | 0.00 | 0.00 | 0.00 | 71 | |
| 20260507134602 | 39 | 328 | 4.3 | 7.0 | 0.00 | 0.00 | 0.00 | 70 | 1013.5 |
| 20260507134534 | 39 | 329 | 4.3 | 7.0 | 0.00 | 0.00 | 0.00 | 70 | |
| 20260507134042 | 39 | 285 | 4.3 | 7.0 | 0.00 | 0.00 | 0.00 | 70 | |
| 20260507133534 | 38 | 286 | 5.2 | 7.8 | 0.00 | 0.00 | 0.00 | 70 | |
| 20260507133102 | 38 | 286 | 5.2 | 7.0 | 0.00 | 0.00 | 0.00 | 70 | 1013.6 |
| 20260507133028 | 38 | 284 | 5.2 | 7.0 | 0.00 | 0.00 | 0.00 | 70 | |
| 20260507132523 | 38 | 284 | 3.5 | 7.0 | 0.00 | 0.00 | 0.00 | 70 | |
| 20260507132039 | 38 | 290 | 4.3 | 7.0 | 0.00 | 0.00 | 0.00 | 70 | |
| 20260507131629 | 37 | 292 | 3.5 | 6.1 | 0.00 | 0.00 | 0.00 | 71 | 1013.5 |
| 20260507131553 | 38 | 295 | 4.3 | 6.1 | 0.00 | 0.00 | 0.00 | 71 | |
| 20260507131027 | 37 | 299 | 3.5 | 6.1 | 0.00 | 0.00 | 0.00 | 73 | |
| 20260507130541 | 37 | 274 | 4.3 | 5.2 | 0.00 | 0.00 | 0.00 | 76 | |
| 20260507130126 | 36 | 273 | 1.7 | 5.2 | 0.00 | 0.00 | 0.00 | 78 | 1013.5 |
| 20260507125533 | 36 | 273 | 2.6 | 4.3 | 0.00 | 0.00 | 0.00 | 78 | |
| 20260507125029 | 36 | 273 | 3.5 | 5.2 | 0.00 | 0.00 | 0.00 | 78 | |
| 20260507124614 | 35 | 273 | 3.5 | 5.2 | 0.00 | 0.00 | 0.00 | 78 | 1013.5 |
| 20260507124544 | 36 | 273 | 4.3 | 5.2 | 0.00 | 0.00 | 0.00 | 78 | |
| 20260507124017 | 35 | 273 | 3.5 | 4.3 | 0.00 | 0.00 | 0.00 | 80 | |
| 20260507123533 | 35 | 273 | 2.6 | 3.5 | 0.00 | 0.00 | 0.00 | 81 | |
| 20260507123115 | 34 | 273 | 1.7 | 3.5 | 0.00 | 0.00 | 0.00 | 81 | 1013.3 |
| 20260507123049 | 34 | 273 | 1.7 | 3.5 | 0.00 | 0.00 | 0.00 | 81 | |
| 20260507122541 | 34 | 273 | 1.7 | 3.5 | 0.00 | 0.00 | 0.00 | 82 | |
| 20260507122055 | 34 | 273 | 0.9 | 2.6 | 0.00 | 0.00 | 0.00 | 82 | |
| 20260507121608 | 33 | 273 | 1.7 | 3.5 | 0.00 | 0.00 | 0.00 | 82 | 1013.2 |
| 20260507121527 | 34 | 273 | 1.7 | 3.5 | 0.00 | 0.00 | 0.00 | 83 | |
| 20260507121024 | 34 | 273 | 2.6 | 3.5 | 0.00 | 0.00 | 0.00 | 83 | |
| 20260507120541 | 34 | 273 | 0.9 | 2.6 | 0.00 | 0.00 | 0.00 | 84 | |
| 20260507120107 | 33 | 273 | 0.0 | 0.9 | 0.00 | 0.00 | 0.00 | 85 | 1013.1 |
| 20260507120015 | 34 | 273 | 0.0 | 0.9 | 0.00 | 0.00 | 0.00 | 85 | |
| 20260507115554 | 34 | 273 | 0.0 | 0.9 | 0.00 | 0.00 | 0.00 | 86 | |
| 20260507115048 | 33 | 273 | 0.0 | 0.0 | 0.00 | 0.00 | 0.00 | 86 | |
| 20260507114547 | 32 | 273 | 0.0 | 1.7 | 0.00 | 0.00 | 0.00 | 86 | 1013.0 |
| 20260507114522 | 33 | 273 | 0.0 | 1.7 | 0.00 | 0.00 | 0.00 | 86 | |
| 20260507114039 | 33 | 273 | 0.0 | 3.5 | 0.00 | 0.00 | 0.00 | 85 | |
| 20260507113555 | 32 | 273 | 1.7 | 4.3 | 0.00 | 0.00 | 0.00 | 85 | |
| 20260507113050 | 32 | 273 | 0.9 | 3.5 | 0.00 | 0.00 | 0.00 | 84 | 1013.1 |
| 20260507113029 | 32 | 273 | 0.9 | 3.5 | 0.00 | 0.00 | 0.00 | 84 | |
| 20260507112546 | 32 | 273 | 1.7 | 3.5 | 0.00 | 0.00 | 0.00 | 84 | |
| 20260507112019 | 32 | 273 | 2.6 | 3.5 | 0.00 | 0.00 | 0.00 | 83 | |
| 20260507111554 | 32 | 273 | 1.7 | 3.5 | 0.00 | 0.00 | 0.00 | 83 | 1013.1 |
| 20260507111533 | 32 | 273 | 1.7 | 3.5 | 0.00 | 0.00 | 0.00 | 83 | |
| 20260507111029 | 32 | 273 | 2.6 | 3.5 | 0.00 | 0.00 | 0.00 | 82 | |
| 20260507110524 | 32 | 273 | 1.7 | 2.6 | 0.00 | 0.00 | 0.00 | 81 | |
| 20260507110037 | 32 | 273 | 0.0 | 1.7 | 0.00 | 0.00 | 0.00 | 81 | |
| 20260507110005 | 32 | 273 | 0.0 | 1.7 | 0.00 | 0.00 | 0.00 | 81 | 1013.0 |
| 20260507105534 | 32 | 273 | 0.9 | 2.6 | 0.00 | 0.00 | 0.00 | 80 | |
| 20260507105050 | 33 | 273 | 1.7 | 2.6 | 0.00 | 0.00 | 0.00 | 80 | |
| 20260507104520 | 33 | 273 | 0.0 | 2.6 | 0.00 | 0.00 | 0.00 | 79 | |
| 20260507104506 | 32 | 273 | 0.0 | 2.6 | 0.00 | 0.00 | 0.00 | 79 | 1013.2 |
| 20260507104034 | 33 | 273 | 1.7 | 2.6 | 0.00 | 0.00 | 0.00 | 78 | |
| 20260507103529 | 33 | 273 | 0.9 | 2.6 | 0.00 | 0.00 | 0.00 | 77 | |
| 20260507103056 | 32 | 273 | 0.0 | 2.6 | 0.00 | 0.00 | 0.00 | 78 | 1013.2 |
| 20260507103024 | 33 | 273 | 0.9 | 2.6 | 0.00 | 0.00 | 0.00 | 78 | |
| 20260507102520 | 33 | 273 | 0.9 | 2.6 | 0.00 | 0.00 | 0.00 | 79 | |
| 20260507102037 | 33 | 273 | 0.9 | 2.6 | 0.00 | 0.00 | 0.00 | 80 | |
| 20260507101614 | 32 | 273 | 0.9 | 2.6 | 0.00 | 0.00 | 0.00 | 81 | 1013.2 |
| 20260507101553 | 33 | 273 | 0.9 | 2.6 | 0.00 | 0.00 | 0.00 | 81 | |
| 20260507101025 | 33 | 273 | 1.7 | 2.6 | 0.00 | 0.00 | 0.00 | 83 | |
| 20260507100521 | 32 | 273 | 1.7 | 2.6 | 0.00 | 0.00 | 0.00 | 84 | |
| 20260507100121 | 31 | 273 | 0.9 | 2.6 | 0.00 | 0.00 | 0.00 | 85 | 1013.2 |
| 20260507100036 | 32 | 273 | 1.7 | 2.6 | 0.00 | 0.00 | 0.00 | 86 | |
| 20260507095550 | 31 | 273 | 1.7 | 2.6 | 0.00 | 0.00 | 0.00 | 87 | |
| 20260507095025 | 31 | 273 | 0.0 | 0.9 | 0.00 | 0.00 | 0.00 | 87 | |
| 20260507094628 | 30 | 273 | 0.0 | 0.0 | 0.00 | 0.00 | 0.00 | 87 | 1013.2 |
| 20260507094520 | 30 | 273 | 0.0 | 0.0 | 0.00 | 0.00 | 0.00 | 87 | |
| 20260507094036 | 31 | 273 | 0.0 | 0.0 | 0.00 | 0.00 | 0.00 | 87 | |
| 20260507093552 | 30 | 273 | 0.0 | 0.0 | 0.00 | 0.00 | 0.00 | 87 | |
| 20260507093120 | 30 | 273 | 0.0 | 0.0 | 0.00 | 0.00 | 0.00 | 87 | 1013.2 |
| 20260507093026 | 30 | 273 | 0.0 | 0.0 | 0.00 | 0.00 | 0.00 | 87 | |
| 20260507092539 | 30 | 273 | 0.0 | 0.0 | 0.00 | 0.00 | 0.00 | 87 | |
| 20260507092055 | 31 | 273 | 0.0 | 0.0 | 0.00 | 0.00 | 0.00 | 87 | |
| 20260507091530 | 31 | 273 | 0.0 | 0.0 | 0.00 | 0.00 | 0.00 | 86 | |
| 20260507091506 | 30 | 273 | 0.0 | 0.0 | 0.00 | 0.00 | 0.00 | 86 | 1013.3 |
| 20260507091024 | 31 | 273 | 0.0 | 0.0 | 0.00 | 0.00 | 0.00 | 86 | |
| 20260507090521 | 31 | 273 | 0.0 | 0.0 | 0.00 | 0.00 | 0.00 | 86 | |
| 20260507090106 | 31 | 273 | 0.0 | 0.0 | 0.00 | 0.00 | 0.00 | 86 | 1013.3 |
| 20260507090016 | 31 | 273 | 0.0 | 0.0 | 0.00 | 0.00 | 0.00 | 86 | |
| 20260507085528 | 32 | 273 | 0.0 | 0.0 | 0.00 | 0.00 | 0.00 | 86 | |
| 20260507085021 | 32 | 273 | 0.0 | 0.0 | 0.00 | 0.00 | 0.00 | 86 | |
| 20260507084538 | 32 | 273 | 0.0 | 0.0 | 0.00 | 0.00 | 0.00 | 86 | 1013.3 |
| 20260507084516 | 32 | 273 | 0.0 | 0.0 | 0.00 | 0.00 | 0.00 | 86 | |
| 20260507084041 | 33 | 273 | 0.0 | 0.0 | 0.00 | 0.00 | 0.00 | 86 | |
| 20260507083516 | 33 | 273 | 0.0 | 0.9 | 0.00 | 0.00 | 0.00 | 86 | |
| 20260507083032 | 33 | 273 | 0.0 | 2.6 | 0.00 | 0.00 | 0.00 | 87 | |
| 20260507083004 | 33 | 273 | 0.0 | 2.6 | 0.00 | 0.00 | 0.00 | 87 | 1013.3 |
| 20260507082547 | 33 | 273 | 0.9 | 2.6 | 0.00 | 0.00 | 0.00 | 86 | |
| 20260507082022 | 33 | 273 | 0.9 | 2.6 | 0.00 | 0.00 | 0.00 | 86 | |
| 20260507081534 | 32 | 273 | 0.9 | 2.6 | 0.00 | 0.00 | 0.00 | 86 | 1013.4 |
| 20260507081518 | 32 | 273 | 0.9 | 2.6 | 0.00 | 0.00 | 0.00 | 85 | |
| 20260507081031 | 32 | 273 | 1.7 | 2.6 | 0.00 | 0.00 | 0.00 | 85 | |
| 20260507080525 | 32 | 273 | 0.0 | 1.7 | 0.00 | 0.00 | 0.00 | 85 | |
| 20260507080100 | 32 | 273 | 0.0 | 1.7 | 0.00 | 0.00 | 0.00 | 85 | 1013.4 |
| 20260507080020 | 32 | 273 | 0.0 | 1.7 | 0.00 | 0.00 | 0.00 | 85 | |
| 20260507075516 | 32 | 273 | 0.9 | 1.7 | 0.00 | 0.00 | 0.00 | 85 | |
| 20260507075031 | 32 | 273 | 0.0 | 0.9 | 0.00 | 0.00 | 0.00 | 84 | |
| 20260507074525 | 32 | 273 | 0.0 | 0.0 | 0.00 | 0.00 | 0.00 | 84 | |
| 20260507074523 | 31 | 273 | 0.0 | 0.0 | 0.00 | 0.00 | 0.00 | 84 | 1013.3 |
| 20260507074021 | 32 | 273 | 0.0 | 0.0 | 0.00 | 0.00 | 0.00 | 84 | |
| 20260507073516 | 32 | 273 | 0.0 | 0.0 | 0.00 | 0.00 | 0.00 | 84 | |
| 20260507073101 | 32 | 273 | 0.0 | 0.0 | 0.00 | 0.00 | 0.00 | 84 | 1013.4 |
| 20260507073032 | 32 | 273 | 0.0 | 0.0 | 0.00 | 0.00 | 0.00 | 83 | |
| 20260507072528 | 32 | 273 | 0.0 | 0.0 | 0.00 | 0.00 | 0.00 | 83 | |
| 20260507072025 | 32 | 273 | 0.0 | 0.0 | 0.00 | 0.00 | 0.00 | 82 | |
| 20260507071626 | 32 | 273 | 0.0 | 0.0 | 0.00 | 0.00 | 0.00 | 82 | 1013.4 |
| 20260507071542 | 32 | 273 | 0.0 | 0.0 | 0.00 | 0.00 | 0.00 | 82 | |
| 20260507071031 | 32 | 273 | 0.0 | 0.0 | 0.00 | 0.00 | 0.00 | 82 | |
| 20260507070523 | 32 | 273 | 0.0 | 0.0 | 0.00 | 0.00 | 0.00 | 82 | |
| 20260507070041 | 32 | 273 | 0.0 | 0.0 | 0.00 | 0.00 | 0.00 | 82 | |
| 20260507070012 | 32 | 273 | 0.0 | 0.0 | 0.00 | 0.00 | 0.00 | 82 | 1013.3 |
| 20260507065552 | 33 | 273 | 0.0 | 0.0 | 0.00 | 0.00 | 0.00 | 81 | |
| 20260507065027 | 33 | 273 | 0.0 | 0.0 | 0.00 | 0.00 | 0.00 | 81 | |
| 20260507064538 | 33 | 273 | 0.0 | 0.0 | 0.00 | 0.00 | 0.00 | 81 | 1013.4 |
| 20260507064520 | 33 | 273 | 0.0 | 0.0 | 0.00 | 0.00 | 0.00 | 81 | |
| 20260507064034 | 34 | 273 | 0.0 | 0.0 | 0.00 | 0.00 | 0.00 | 80 | |
| 20260507063529 | 34 | 273 | 0.0 | 0.0 | 0.00 | 0.00 | 0.00 | 80 | |
| 20260507063100 | 34 | 273 | 0.0 | 0.0 | 0.00 | 0.00 | 0.00 | 80 | 1013.3 |
| 20260507063024 | 35 | 273 | 0.0 | 0.0 | 0.00 | 0.00 | 0.00 | 80 | |
| 20260507062518 | 35 | 273 | 0.0 | 0.9 | 0.00 | 0.00 | 0.00 | 79 | |
| 20260507062032 | 35 | 273 | 0.0 | 0.9 | 0.00 | 0.00 | 0.00 | 79 | |
| 20260507061624 | 35 | 273 | 0.0 | 0.0 | 0.00 | 0.00 | 0.00 | 78 | 1013.4 |
| 20260507061548 | 35 | 273 | 0.0 | 0.0 | 0.00 | 0.00 | 0.00 | 78 | |
| 20260507061022 | 36 | 273 | 0.0 | 0.9 | 0.00 | 0.00 | 0.00 | 77 | |
| 20260507060540 | 36 | 273 | 0.0 | 0.9 | 0.00 | 0.00 | 0.00 | 76 | |
| 20260507060111 | 35 | 273 | 0.0 | 0.9 | 0.00 | 0.00 | 0.00 | 75 | 1013.5 |
| 20260507060034 | 36 | 273 | 0.0 | 0.9 | 0.00 | 0.00 | 0.00 | 75 | |
| 20260507055530 | 36 | 273 | 0.0 | 0.9 | 0.00 | 0.00 | 0.00 | 73 | |
| 20260507055046 | 36 | 273 | 0.0 | 1.7 | 0.00 | 0.00 | 0.00 | 72 | |
| 20260507054606 | 36 | 273 | 0.0 | 2.6 | 0.00 | 0.00 | 0.00 | 73 | 1013.5 |
| 20260507054520 | 36 | 273 | 0.0 | 2.6 | 0.00 | 0.00 | 0.00 | 72 | |
| 20260507054032 | 36 | 273 | 1.7 | 2.6 | 0.00 | 0.00 | 0.00 | 70 | |
| 20260507053528 | 36 | 273 | 0.0 | 0.0 | 0.00 | 0.00 | 0.00 | 68 | |
| 20260507053121 | 36 | 273 | 0.0 | 0.0 | 0.00 | 0.00 | 0.00 | 68 | 1013.5 |
| 20260507053043 | 36 | 273 | 0.0 | 0.0 | 0.00 | 0.00 | 0.00 | 68 | |
| 20260507052519 | 36 | 273 | 0.0 | 0.0 | 0.00 | 0.00 | 0.00 | 67 | |
| 20260507052031 | 37 | 273 | 0.0 | 0.0 | 0.00 | 0.00 | 0.00 | 67 | |
| 20260507051622 | 36 | 273 | 0.0 | 0.0 | 0.00 | 0.00 | 0.00 | 67 | 1013.5 |
| 20260507051524 | 37 | 273 | 0.0 | 0.0 | 0.00 | 0.00 | 0.00 | 67 | |
| 20260507051039 | 37 | 273 | 0.0 | 0.0 | 0.00 | 0.00 | 0.00 | 67 | |
| 20260507050549 | 37 | 273 | 0.0 | 0.0 | 0.00 | 0.00 | 0.00 | 66 | |
| 20260507050023 | 37 | 273 | 0.0 | 0.0 | 0.00 | 0.00 | 0.00 | 66 | |
| 20260507050009 | 37 | 273 | 0.0 | 0.0 | 0.00 | 0.00 | 0.00 | 66 | 1013.6 |
| 20260507045528 | 37 | 273 | 0.0 | 0.0 | 0.00 | 0.00 | 0.00 | 65 | |
| 20260507045025 | 37 | 273 | 0.0 | 0.0 | 0.00 | 0.00 | 0.00 | 65 | |
| 20260507044544 | 37 | 273 | 0.0 | 0.0 | 0.00 | 0.00 | 0.00 | 65 | 1013.8 |
| 20260507044519 | 37 | 273 | 0.0 | 0.0 | 0.00 | 0.00 | 0.00 | 65 | |
| 20260507044035 | 38 | 273 | 0.0 | 0.0 | 0.00 | 0.00 | 0.00 | 65 | |
| 20260507043552 | 38 | 273 | 0.0 | 0.0 | 0.00 | 0.00 | 0.00 | 64 | |
| 20260507043045 | 38 | 273 | 0.0 | 0.0 | 0.00 | 0.00 | 0.00 | 64 | 1013.8 |
| 20260507043024 | 38 | 273 | 0.0 | 0.0 | 0.00 | 0.00 | 0.00 | 64 | |
| 20260507042519 | 38 | 273 | 0.0 | 0.0 | 0.00 | 0.00 | 0.00 | 64 | |
| 20260507042035 | 39 | 273 | 0.0 | 0.0 | 0.00 | 0.00 | 0.00 | 64 | |
| 20260507041611 | 38 | 273 | 0.0 | 0.0 | 0.00 | 0.00 | 0.00 | 63 | 1014.0 |
| 20260507041550 | 39 | 273 | 0.0 | 0.0 | 0.00 | 0.00 | 0.00 | 63 | |
| 20260507041046 | 39 | 273 | 0.0 | 0.0 | 0.00 | 0.00 | 0.00 | 63 | |
| 20260507040518 | 39 | 273 | 0.0 | 0.0 | 0.00 | 0.00 | 0.00 | 62 | |
| 20260507040046 | 39 | 273 | 0.0 | 0.0 | 0.00 | 0.00 | 0.00 | 62 | 1014.1 |
| 20260507040032 | 39 | 273 | 0.0 | 0.0 | 0.00 | 0.00 | 0.00 | 62 | |
| 20260507035546 | 40 | 273 | 0.0 | 0.0 | 0.00 | 0.00 | 0.00 | 62 | |
| 20260507035038 | 40 | 273 | 0.0 | 0.0 | 0.00 | 0.00 | 0.00 | 61 | |
| 20260507034533 | 40 | 273 | 0.0 | 0.0 | 0.00 | 0.00 | 0.00 | 61 | |
| 20260507034505 | 40 | 273 | 0.0 | 0.0 | 0.00 | 0.00 | 0.00 | 61 | 1014.2 |
| 20260507034028 | 40 | 273 | 0.0 | 0.0 | 0.00 | 0.00 | 0.00 | 61 | |
| 20260507033524 | 41 | 273 | 0.0 | 0.0 | 0.00 | 0.00 | 0.00 | 60 | |
| 20260507033056 | 40 | 273 | 0.0 | 1.7 | 0.00 | 0.00 | 0.00 | 60 | 1014.3 |
| 20260507033020 | 41 | 273 | 0.0 | 1.7 | 0.00 | 0.00 | 0.00 | 60 | |
| 20260507032516 | 41 | 273 | 0.0 | 2.6 | 0.00 | 0.00 | 0.00 | 60 | |
| 20260507032028 | 42 | 273 | 0.9 | 2.6 | 0.00 | 0.00 | 0.00 | 60 | |
| 20260507031620 | 41 | 273 | 0.9 | 2.6 | 0.00 | 0.00 | 0.00 | 58 | 1014.4 |
| 20260507031543 | 42 | 273 | 0.9 | 2.6 | 0.00 | 0.00 | 0.00 | 58 | |
| 20260507031017 | 42 | 273 | 1.7 | 2.6 | 0.00 | 0.00 | 0.00 | 59 | |
| 20260507030529 | 42 | 273 | 0.0 | 1.7 | 0.00 | 0.00 | 0.00 | 60 | |
| 20260507030025 | 42 | 273 | 1.7 | 2.6 | 0.00 | 0.00 | 0.00 | 59 | |
| 20260507030013 | 42 | 273 | 0.9 | 3.5 | 0.00 | 0.00 | 0.00 | 58 | 1014.5 |
| 20260507025520 | 43 | 273 | 1.7 | 3.5 | 0.00 | 0.00 | 0.00 | 57 | |
| 20260507025016 | 43 | 273 | 2.6 | 3.5 | 0.00 | 0.00 | 0.00 | 55 | |
| 20260507024559 | 43 | 273 | 2.6 | 3.5 | 0.00 | 0.00 | 0.00 | 54 | 1014.5 |
| 20260507024530 | 44 | 273 | 2.6 | 3.5 | 0.00 | 0.00 | 0.00 | 54 | |
| 20260507024046 | 44 | 273 | 0.9 | 2.6 | 0.00 | 0.00 | 0.00 | 54 | |
| 20260507023521 | 44 | 273 | 1.7 | 3.5 | 0.00 | 0.00 | 0.00 | 53 | |
| 20260507023057 | 43 | 273 | 0.9 | 3.5 | 0.00 | 0.00 | 0.00 | 52 | 1014.5 |
| 20260507023017 | 44 | 273 | 1.7 | 3.5 | 0.00 | 0.00 | 0.00 | 52 | |
| 20260507022534 | 44 | 273 | 2.6 | 3.5 | 0.00 | 0.00 | 0.00 | 51 | |
| 20260507022029 | 44 | 273 | 2.6 | 4.3 | 0.00 | 0.00 | 0.00 | 51 | |
| 20260507021523 | 44 | 273 | 2.6 | 5.2 | 0.00 | 0.00 | 0.00 | 50 | |
| 20260507021506 | 44 | 273 | 1.7 | 5.2 | 0.00 | 0.00 | 0.00 | 50 | 1014.6 |
| 20260507021018 | 45 | 273 | 3.5 | 5.2 | 0.00 | 0.00 | 0.00 | 47 | |
| 20260507020531 | 45 | 273 | 3.5 | 5.2 | 0.00 | 0.00 | 0.00 | 48 | |
| 20260507020057 | 45 | 273 | 3.5 | 5.2 | 0.00 | 0.00 | 0.00 | 47 | 1014.7 |
| 20260507020028 | 45 | 273 | 4.3 | 5.2 | 0.00 | 0.00 | 0.00 | 47 | |
| 20260507015522 | 45 | 273 | 3.5 | 5.2 | 0.00 | 0.00 | 0.00 | 47 | |
| 20260507015038 | 45 | 273 | 3.5 | 7.0 | 0.00 | 0.00 | 0.00 | 47 | |
| 20260507014600 | 45 | 273 | 2.6 | 7.0 | 0.00 | 0.00 | 0.00 | 46 | 1014.8 |
| 20260507014532 | 46 | 273 | 2.6 | 7.0 | 0.00 | 0.00 | 0.00 | 45 | |
| 20260507014028 | 45 | 256 | 4.3 | 7.0 | 0.00 | 0.00 | 0.00 | 44 | |
| 20260507013522 | 45 | 279 | 2.6 | 5.2 | 0.00 | 0.00 | 0.00 | 47 | |
| 20260507013034 | 45 | 279 | 2.6 | 5.2 | 0.00 | 0.00 | 0.00 | 47 | 1014.7 |
| 20260507013018 | 45 | 279 | 3.5 | 5.2 | 0.00 | 0.00 | 0.00 | 46 | |
| 20260507012515 | 45 | 280 | 3.5 | 6.1 | 0.00 | 0.00 | 0.00 | 46 | |
| 20260507012032 | 46 | 280 | 4.3 | 6.1 | 0.00 | 0.00 | 0.00 | 45 | |
| 20260507011602 | 45 | 281 | 3.5 | 6.1 | 0.00 | 0.00 | 0.00 | 45 | 1014.8 |
| 20260507011547 | 46 | 281 | 4.3 | 6.1 | 0.00 | 0.00 | 0.00 | 45 | |
| 20260507011023 | 46 | 281 | 4.3 | 6.1 | 0.00 | 0.00 | 0.00 | 44 | |
| 20260507010517 | 46 | 287 | 3.5 | 6.1 | 0.00 | 0.00 | 0.00 | 43 | |
| 20260507010116 | 46 | 287 | 2.6 | 7.0 | 0.00 | 0.00 | 0.00 | 42 | 1014.9 |
| 20260507010031 | 46 | 287 | 3.5 | 7.0 | 0.00 | 0.00 | 0.00 | 42 | |
| 20260507005527 | 46 | 287 | 5.2 | 7.0 | 0.00 | 0.00 | 0.00 | 42 | |
| 20260507005022 | 46 | 284 | 4.3 | 6.1 | 0.00 | 0.00 | 0.00 | 41 | |
| 20260507004533 | 46 | 284 | 3.5 | 7.0 | 0.00 | 0.00 | 0.00 | 41 | 1014.9 |
| 20260507004519 | 46 | 284 | 4.3 | 7.0 | 0.00 | 0.00 | 0.00 | 41 | |
| 20260507004015 | 46 | 284 | 5.2 | 10.4 | 0.00 | 0.00 | 0.00 | 41 | |
| 20260507003531 | 46 | 287 | 8.7 | 10.4 | 0.00 | 0.00 | 0.00 | 39 | |
| 20260507003056 | 46 | 270 | 5.2 | 10.4 | 0.00 | 0.00 | 0.00 | 40 | 1015.0 |
| 20260507003027 | 46 | 279 | 5.2 | 10.4 | 0.00 | 0.00 | 0.00 | 40 | |
| 20260507002522 | 47 | 277 | 5.2 | 10.4 | 0.00 | 0.00 | 0.00 | 39 | |
| 20260507002019 | 47 | 275 | 7.8 | 10.4 | 0.00 | 0.00 | 0.00 | 38 | |
| 20260507001529 | 46 | 297 | 2.6 | 7.8 | 0.00 | 0.00 | 0.00 | 39 | 1015.1 |
| 20260507001515 | 47 | 277 | 3.5 | 8.7 | 0.00 | 0.00 | 0.00 | 38 | |
| 20260507001100 | 47 | 25 | 2.6 | 8.7 | 0.00 | 0.00 | 0.00 | 39 | |
| 20260507000550 | 47 | 240 | 5.2 | 7.8 | 0.00 | 0.00 | 0.00 | 39 | |
| 20260507000107 | 46 | 260 | 2.6 | 4.3 | 0.00 | 0.00 | 0.00 | 40 | 1015.1 |
| 20260507000023 | 47 | 320 | 2.6 | 4.3 | 0.00 | 0.00 | 0.00 | 39 | |
| 20260506235516 | 46 | 69 | 0.9 | 4.3 | 0.00 | 0.00 | 0.00 | 39 | |
| 20260506235032 | 47 | 34 | 2.6 | 6.1 | 0.00 | 0.00 | 0.00 | 39 | |
| 20260506234542 | 47 | 24 | 2.6 | 6.1 | 0.00 | 0.00 | 0.00 | 39 | 1015.3 |
| 20260506234527 | 47 | 24 | 2.6 | 6.1 | 0.00 | 0.00 | 0.00 | 39 | |
| 20260506234021 | 47 | 312 | 2.6 | 5.2 | 0.00 | 0.00 | 0.00 | 40 | |
| 20260506233517 | 47 | 313 | 1.7 | 4.3 | 0.00 | 0.00 | 0.00 | 40 | |
| 20260506233109 | 46 | 313 | 2.6 | 4.3 | 0.00 | 0.00 | 0.00 | 40 | 1015.3 |
| 20260506233033 | 47 | 316 | 3.5 | 4.3 | 0.00 | 0.00 | 0.00 | 40 | |
| 20260506232549 | 46 | 316 | 1.7 | 5.2 | 0.00 | 0.00 | 0.00 | 40 | |
| 20260506232025 | 46 | 316 | 0.9 | 5.2 | 0.00 | 0.00 | 0.00 | 40 | |
| 20260506231604 | 46 | 316 | 2.6 | 4.3 | 0.00 | 0.00 | 0.00 | 41 | 1015.5 |
| 20260506231539 | 46 | 316 | 2.6 | 4.3 | 0.00 | 0.00 | 0.00 | 41 | |
| 20260506231055 | 46 | 316 | 2.6 | 5.2 | 0.00 | 0.00 | 0.00 | 41 | |
| 20260506230528 | 46 | 316 | 2.6 | 5.2 | 0.00 | 0.00 | 0.00 | 41 | |
| 20260506230109 | 45 | 316 | 2.6 | 6.1 | 0.00 | 0.00 | 0.00 | 42 | 1015.6 |
| 20260506230023 | 45 | 316 | 3.5 | 6.1 | 0.00 | 0.00 | 0.00 | 42 | |
| 20260506225519 | 45 | 319 | 2.6 | 7.8 | 0.00 | 0.00 | 0.00 | 42 | |
| 20260506225035 | 45 | 318 | 4.3 | 7.8 | 0.00 | 0.00 | 0.00 | 41 | |
| 20260506224542 | 45 | 295 | 3.5 | 7.8 | 0.00 | 0.00 | 0.00 | 42 | 1015.7 |
| 20260506224528 | 45 | 295 | 4.3 | 7.8 | 0.00 | 0.00 | 0.00 | 41 | |
| 20260506224022 | 45 | 298 | 4.3 | 9.6 | 0.00 | 0.00 | 0.00 | 41 | |
| 20260506223516 | 46 | 312 | 5.2 | 9.6 | 0.00 | 0.00 | 0.00 | 42 | |
| 20260506223103 | 45 | 283 | 6.1 | 10.4 | 0.00 | 0.00 | 0.00 | 42 | 1015.9 |
| 20260506223030 | 46 | 279 | 6.1 | 10.4 | 0.00 | 0.00 | 0.00 | 42 | |
| 20260506222524 | 46 | 276 | 6.1 | 10.4 | 0.00 | 0.00 | 0.00 | 41 | |
| 20260506222020 | 46 | 273 | 5.2 | 11.3 | 0.00 | 0.00 | 0.00 | 41 | |
| 20260506221533 | 46 | 278 | 6.1 | 11.3 | 0.00 | 0.00 | 0.00 | 42 | |
| 20260506221504 | 45 | 259 | 3.5 | 7.0 | 0.00 | 0.00 | 0.00 | 42 | 1016.1 |
| 20260506221049 | 45 | 284 | 4.3 | 6.1 | 0.00 | 0.00 | 0.00 | 43 | |
| 20260506220523 | 45 | 273 | 3.5 | 5.2 | 0.00 | 0.00 | 0.00 | 43 | |
| 20260506220129 | 44 | 273 | 2.6 | 6.1 | 0.00 | 0.00 | 0.00 | 44 | 1016.2 |
| 20260506220038 | 44 | 273 | 3.5 | 7.8 | 0.00 | 0.00 | 0.00 | 44 | |
| 20260506215532 | 44 | 273 | 4.3 | 10.4 | 0.00 | 0.00 | 0.00 | 44 | |
| 20260506215029 | 45 | 281 | 5.2 | 10.4 | 0.00 | 0.00 | 0.00 | 44 | |
| 20260506214538 | 44 | 273 | 7.0 | 9.6 | 0.00 | 0.00 | 0.00 | 44 | 1016.5 |
| 20260506214523 | 45 | 277 | 7.0 | 9.6 | 0.00 | 0.00 | 0.00 | 44 | |
| 20260506214018 | 44 | 298 | 7.8 | 11.3 | 0.00 | 0.00 | 0.00 | 45 | |
| 20260506213533 | 45 | 303 | 7.8 | 12.2 | 0.00 | 0.00 | 0.00 | 43 | |
| 20260506213057 | 45 | 279 | 7.8 | 12.2 | 0.00 | 0.00 | 0.00 | 43 | 1016.7 |
| 20260506213026 | 45 | 279 | 7.8 | 12.2 | 0.00 | 0.00 | 0.00 | 43 | |
| 20260506212536 | 45 | 247 | 6.1 | 14.8 | 0.00 | 0.00 | 0.00 | 45 | |
| 20260506212028 | 45 | 291 | 7.8 | 14.8 | 0.00 | 0.00 | 0.00 | 45 | |
| 20260506211556 | 44 | 290 | 8.7 | 14.8 | 0.00 | 0.00 | 0.00 | 44 | 1017.0 |
| 20260506211523 | 44 | 303 | 8.7 | 14.8 | 0.00 | 0.00 | 0.00 | 44 | |
| 20260506211038 | 44 | 287 | 9.6 | 13.9 | 0.00 | 0.00 | 0.00 | 46 | |
| 20260506210533 | 44 | 286 | 10.4 | 13.9 | 0.00 | 0.00 | 0.00 | 46 | |
| 20260506210047 | 44 | 286 | 6.1 | 14.8 | 0.00 | 0.00 | 0.00 | 45 | |
| 20260506205519 | 44 | 284 | 8.7 | 13.9 | 0.00 | 0.00 | 0.00 | 45 | |
| 20260506205035 | 44 | 273 | 6.1 | 12.2 | 0.00 | 0.00 | 0.00 | 46 | |
| 20260506204617 | 43 | 279 | 7.8 | 13.0 | 0.00 | 0.00 | 0.00 | 45 | 1017.2 |
| 20260506204549 | 44 | 281 | 8.7 | 13.0 | 0.00 | 0.00 | 0.00 | 45 | |
| 20260506204024 | 44 | 290 | 7.8 | 13.0 | 0.00 | 0.00 | 0.00 | 46 | |
| 20260506203538 | 44 | 279 | 7.8 | 12.2 | 0.00 | 0.00 | 0.00 | 47 | |
| 20260506203034 | 44 | 271 | 7.0 | 13.0 | 0.00 | 0.00 | 0.00 | 46 | |
| 20260506203013 | 43 | 257 | 6.1 | 13.0 | 0.00 | 0.00 | 0.00 | 46 | 1017.4 |
| 20260506202549 | 44 | 284 | 7.8 | 13.0 | 0.00 | 0.00 | 0.00 | 46 | |
| 20260506202022 | 44 | 279 | 7.8 | 12.2 | 0.00 | 0.00 | 0.00 | 47 | |
| 20260506201540 | 43 | 261 | 5.2 | 12.2 | 0.00 | 0.00 | 0.00 | 47 | 1017.5 |
| 20260506201518 | 43 | 261 | 5.2 | 12.2 | 0.00 | 0.00 | 0.00 | 47 | |
| 20260506201034 | 43 | 290 | 9.6 | 12.2 | 0.00 | 0.00 | 0.00 | 46 | |
| 20260506200547 | 44 | 306 | 7.0 | 10.4 | 0.00 | 0.00 | 0.00 | 46 | |
| 20260506200042 | 43 | 321 | 6.1 | 10.4 | 0.00 | 0.00 | 0.00 | 49 | 1017.6 |
| 20260506200020 | 43 | 323 | 7.0 | 10.4 | 0.00 | 0.00 | 0.00 | 49 | |
| 20260506195515 | 43 | 298 | 5.2 | 13.0 | 0.00 | 0.00 | 0.00 | 48 | |
| 20260506195028 | 43 | 273 | 8.7 | 13.0 | 0.00 | 0.00 | 0.00 | 47 | |
| 20260506194604 | 43 | 262 | 7.0 | 12.2 | 0.00 | 0.00 | 0.00 | 48 | 1017.8 |
| 20260506194522 | 43 | 267 | 7.0 | 12.2 | 0.00 | 0.00 | 0.00 | 47 | |
| 20260506194015 | 43 | 284 | 6.1 | 12.2 | 0.00 | 0.00 | 0.00 | 47 | |
| 20260506193555 | 43 | 290 | 5.2 | 13.9 | 0.00 | 0.00 | 0.00 | 48 | |
| 20260506193110 | 42 | 279 | 7.8 | 13.9 | 0.00 | 0.00 | 0.00 | 48 | 1018.1 |
| 20260506193048 | 43 | 331 | 7.8 | 13.9 | 0.00 | 0.00 | 0.00 | 48 | |
| 20260506192523 | 43 | 279 | 8.7 | 13.0 | 0.00 | 0.00 | 0.00 | 50 | |
| 20260506192019 | 42 | 274 | 7.8 | 14.8 | 0.00 | 0.00 | 0.00 | 48 | |
| 20260506191615 | 41 | 284 | 8.7 | 14.8 | 0.00 | 0.00 | 0.00 | 48 | 1018.1 |
| 20260506191516 | 42 | 292 | 8.7 | 14.8 | 0.00 | 0.00 | 0.00 | 48 | |
| 20260506191029 | 42 | 319 | 7.0 | 12.2 | 0.00 | 0.00 | 0.00 | 48 | |
| 20260506190545 | 42 | 281 | 7.8 | 13.0 | 0.00 | 0.00 | 0.00 | 50 | |
| 20260506190114 | 41 | 259 | 7.8 | 14.8 | 0.00 | 0.00 | 0.00 | 49 | 1018.2 |
| 20260506190019 | 42 | 281 | 8.7 | 14.8 | 0.00 | 0.00 | 0.00 | 50 | |
| 20260506185517 | 41 | 275 | 8.7 | 15.6 | 0.00 | 0.00 | 0.00 | 50 | |
| 20260506185032 | 41 | 281 | 9.6 | 15.6 | 0.00 | 0.00 | 0.00 | 49 | |
| 20260506184545 | 41 | 263 | 8.7 | 13.9 | 0.00 | 0.00 | 0.00 | 48 | 1018.4 |
| 20260506184528 | 41 | 299 | 8.7 | 13.0 | 0.00 | 0.00 | 0.00 | 48 | |
| 20260506184021 | 41 | 282 | 7.8 | 13.0 | 0.00 | 0.00 | 0.00 | 49 | |
| 20260506183515 | 41 | 258 | 8.7 | 16.5 | 0.00 | 0.00 | 0.00 | 48 | |
| 20260506183109 | 41 | 285 | 10.4 | 16.5 | 0.00 | 0.00 | 0.00 | 49 | 1018.5 |
| 20260506183031 | 42 | 259 | 10.4 | 15.6 | 0.00 | 0.00 | 0.00 | 49 | |
| 20260506182544 | 41 | 275 | 7.0 | 13.0 | 0.00 | 0.00 | 0.00 | 48 | |
| 20260506182020 | 41 | 254 | 8.7 | 15.6 | 0.00 | 0.00 | 0.00 | 48 | |
| 20260506181606 | 41 | 279 | 9.6 | 15.6 | 0.00 | 0.00 | 0.00 | 48 | 1018.7 |
| 20260506181516 | 41 | 290 | 10.4 | 15.6 | 0.00 | 0.00 | 0.00 | 49 | |
| 20260506181033 | 41 | 270 | 7.8 | 13.9 | 0.00 | 0.00 | 0.00 | 49 | |
| 20260506180529 | 41 | 261 | 7.0 | 13.0 | 0.00 | 0.00 | 0.00 | 47 | |
| 20260506180025 | 41 | 268 | 7.0 | 12.2 | 0.00 | 0.00 | 0.00 | 48 | |
| 20260506180011 | 41 | 261 | 7.0 | 12.2 | 0.00 | 0.00 | 0.00 | 48 | 1018.7 |
| 20260506175541 | 41 | 315 | 7.8 | 12.2 | 0.00 | 0.00 | 0.00 | 49 | |
| 20260506175033 | 41 | 266 | 9.6 | 16.5 | 0.00 | 0.00 | 0.00 | 48 | |
| 20260506174626 | 40 | 286 | 7.8 | 16.5 | 0.00 | 0.00 | 0.00 | 49 | 1018.8 |
| 20260506174548 | 41 | 275 | 7.8 | 16.5 | 0.00 | 0.00 | 0.00 | 49 | |
| 20260506174024 | 41 | 277 | 7.0 | 15.6 | 0.00 | 0.00 | 0.00 | 49 | |
| 20260506173521 | 41 | 294 | 7.8 | 15.6 | 0.00 | 0.00 | 0.00 | 48 | |
| 20260506173034 | 40 | 282 | 7.8 | 17.4 | 0.00 | 0.00 | 0.00 | 50 | 1019.0 |
| 20260506173014 | 40 | 281 | 7.8 | 17.4 | 0.00 | 0.00 | 0.00 | 49 | |
| 20260506172529 | 40 | 277 | 10.4 | 17.4 | 0.00 | 0.00 | 0.00 | 48 | |
| 20260506172022 | 40 | 277 | 7.8 | 13.9 | 0.00 | 0.00 | 0.00 | 49 | |
| 20260506171601 | 40 | 280 | 8.7 | 14.8 | 0.00 | 0.00 | 0.00 | 49 | 1019.1 |
| 20260506171517 | 40 | 290 | 9.6 | 14.8 | 0.00 | 0.00 | 0.00 | 49 | |
| 20260506171058 | 40 | 269 | 9.6 | 15.6 | 0.00 | 0.00 | 0.00 | 51 | |
| 20260506170553 | 40 | 290 | 11.3 | 15.6 | 0.00 | 0.00 | 0.00 | 52 |